Home > Weather > Stockton > Past weeks

Flag for USA Past Weather in Stockton, California, USA — Yesterday and Last 2 Weeks

Now
88 °F

Sunny.


Feels Like: 85 °F
Forecast: 62 / 103 °F
Wind: 5 mph from South

Location: Stockton Metropolitan Airport

Current Time: Jul 24, 2016 at 11:43:28 AM

Latest Report: Jul 24, 2016 at 10:55 AM


Visibility: 10 mi

Pressure: 29.83 "Hg

Humidity: 27%

Dew Point: 50 °F

Location of StocktonLocation

Past Weather in Stockton — Graph

°F

Stockton Temperature Yesterday

Maximum temperature yesterday: 102 °F (at 3:55 PM)
Minimum temperature yesterday: 63 °F (at 5:55 AM)
Average temperature yesterday: 82 °F

High & Low Weather Summary for the Past Weeks

 TemperatureHumidityPressure
High103 °F (Jul 14, 4:55 PM)84% (Jul 17, 5:55 AM)30.09 "Hg (Jul 17, 5:55 AM)
Low54 °F (Jul 22, 5:55 AM)11% (Jul 14, 3:55 PM)29.77 "Hg (Jul 16, 5:55 PM)
Average75 °F43%29.93 "Hg
* Reported Jul 9 9:55 AM — Jul 24 9:55 AM, Stockton, Weather by CustomWeather, © 2016

Note: Actual official high and low records may vary slightly from our data, if they occured in-between our weather recording intervals... More about our weather records

Advertising

Stockton Weather History for the Previous 24 Hours

Scroll right to see more
 ConditionsComfort  
Time TempWeatherWind HumidityBarometerVisibility
9:55 AM
Sun, Jul 24
83 °FSunny.No wind33%29.83 "Hg10 mi
8:55 AM79 °FSunny.No wind38%29.83 "Hg10 mi
7:55 AM72 °FSunny.3 mph49%29.83 "Hg10 mi
6:55 AM65 °FClear.No wind63%29.81 "Hg10 mi
5:55 AM60 °FClear.3 mph69%29.80 "Hg10 mi
4:55 AM62 °FClear.5 mph60%29.78 "Hg10 mi
3:55 AM63 °FClear.3 mph65%29.78 "Hg10 mi
2:55 AM68 °FClear.No wind53%29.77 "Hg10 mi
1:55 AM68 °FClear.6 mph51%29.78 "Hg10 mi
12:55 AM71 °FClear.7 mph49%29.79 "Hg10 mi
11:55 PM
Sat, Jul 23
74 °FClear.6 mph40%29.79 "Hg10 mi
10:55 PM79 °FClear.9 mph30%29.79 "Hg10 mi
9:55 PM82 °FClear.9 mph31%29.79 "Hg10 mi
8:55 PM85 °FSunny.13 mph31%29.78 "Hg10 mi
7:55 PM92 °FSunny.12 mph21%29.78 "Hg10 mi
6:55 PM98 °FSunny.12 mph15%29.78 "Hg10 mi
5:55 PM100 °FSunny.12 mph15%29.79 "Hg10 mi
4:55 PM101 °FSunny.13 mph13%29.81 "Hg10 mi
3:55 PM102 °FSunny.15 mph14%29.83 "Hg10 mi
2:55 PM99 °FSunny.14 mph17%29.86 "Hg10 mi
1:55 PM97 °FSunny.14 mph20%29.88 "Hg10 mi
12:55 PM94 °FSunny.10 mph19%29.90 "Hg10 mi
11:55 AM90 °FSunny.5 mph24%29.92 "Hg10 mi
Weather by CustomWeather, © 2016

See weather overviewHow to use our weather pages